Regional Weather Roundup
Issued by NWS

Home | Current Version | Previous Version | Text Only | Print | Product List | Glossary On
Versions: 1 2 3 4 5 6 7 8 9 10 11 12 13 14 15 16 17 18 19 20 21 22 23 24 25 26 27 28 29 30 31 32 33 34 35 36 37 38 39 40 41 42 43 44 45 46 47 48 49 50
139
ASUS44 KMEG 150110
RWRTN
TENNESSEE HOURLY STATE WEATHER ROUNDUP
NATIONAL WEATHER SERVICE MEMPHIS TN
800 PM CDT FRI MAY 14 2021

TNZ002-004-019-021-049-052-054-088>092-150200-
WEST TENNESSEE

CITY           SKY/WX    TMP DP  RH WIND       PRES   REMARKS
MEMPHIS INTL   PTCLDY    68  39  34 VRB5      30.22R
NWS MEMPHIS      N/A     64 N/A N/A MISG        N/A
JACKSON        CLEAR     60  46  59 CALM      30.23R
DYERSBURG        N/A     63  42  46 CALM      30.24R
SOMERVILLE     CLEAR     63  43  48 CALM      30.21R
COVINGTON      CLEAR     66  48  52 NE3       30.22R
UNION CITY     CLEAR     63  45  51 CALM      30.22R
BOLIVAR        CLEAR     61  46  59 CALM      30.21R
PARIS          CLEAR     57  45  62 CALM      30.23R
LEXINGTON      CLEAR     61  45  55 CALM      30.22R
SELMER         CLEAR     57  48  72 CALM      30.22R
SAVANNAH       CLEAR     59  52  77 CALM      30.21S
$$

TNZ008-025-027-028-033-062-065-066-150200-
NORTH MIDDLE TENNESSEE

CITY           SKY/WX    TMP DP  RH WIND       PRES   REMARKS
NASHVILLE      PTCLDY    65  36  34 NE7       30.23R
DICKSON          N/A     61  39  44 CALM      30.22R
PORTLAND       CLEAR     63  39  42 CALM      30.22S
CLARKSVILLE    CLEAR     66  36  32 CALM      30.22S
LEBANON        CLEAR     64  41  42 CALM      30.20R
SMYRNA         CLEAR     62  45  53 NW5       30.23R
MURFREESBORO   CLEAR     68  37  32 N5        30.20R
COOKEVILLE     CLEAR     57  45  62 CALM      30.22R
LIVINGSTON     CLEAR     59  36  41 NE5       30.23R
CROSSVILLE     CLEAR     59  38  45 CALM      30.25R
ROCKWOOD       PTCLDY    55  41  58 CALM      30.23S
$$

TNZ061-075-076-078-094-096-097-150200-
SOUTH MIDDLE TENNESSEE

CITY           SKY/WX    TMP DP  RH WIND       PRES   REMARKS
LAWRENCEBURG   CLEAR     63  39  42 CALM      30.22R
LEWISBURG      CLEAR     57  46  67 CALM      30.21S
FAYETTEVILLE   CLEAR     63  43  48 CALM      30.23R HAZE
TULLAHOMA      CLEAR     59  45  58 CALM      30.21R
WINCHESTER     MOCLDY    66  39  37 CALM      30.21R
SHELBYVILLE    CLEAR     64  41  42 CALM      30.21S
$$

TNZ017-018-042-046-047-150200-
NORTHEAST TENNESSEE

CITY           SKY/WX    TMP DP  RH WIND       PRES   REMARKS
TRI CITIES     PTCLDY    55  41  59 N3        30.24R
ELIZABETHTON   CLEAR     52  43  71 CALM      30.25R
GREENEVILLE    CLEAR     57  41  54 CALM      30.24R
$$

TNZ012-013-036-069-073-074-150200-
CENTRAL EAST TENNESSEE

CITY           SKY/WX    TMP DP  RH WIND       PRES   REMARKS
KNOXVILLE      PTCLDY    65  34  31 N5        30.21R
OAK RIDGE      CLEAR     61  42  49 CALM      30.24R
DOWNTOWN KNOXV CLEAR     57  46  67 CALM      30.22S
GATLINBURG     CLEAR     61  37  41 CALM      30.22R
MORRISTOWN     CLEAR     61  36  39 CALM      30.22S
JACKSBORO      CLEAR     55  39  54 CALM      30.26R
$$

TNZ083-085-099-150200-
SOUTHEAST TENNESSEE

CITY           SKY/WX    TMP DP  RH WIND       PRES   REMARKS
CHATTANOOGA    PTCLDY    66  44  45 CALM      30.21R
DAYTON         MOCLDY    59  48  67 CALM      30.21R
$$

SKY/WX REPORTED AS FAIR MEANS FEW OR NO CLOUDS BELOW
12 THOUSAND FEET.





USA.gov is the U.S. government's official web portal to all federal, state and local government web resources and services.